Back to catalog

STARLINK-36289

AliveCommunicationsVLEO
NORAD 67827·PAYLOAD·🇺🇸 United States

Launched Feb 16, 2026 from Vandenberg Space Force Base

Loading…

Next Passes (next 24 hours)

TLE

FreshSource: CelesTrak SupGP

Epoch: Sep 14, 2026, 23:24 UTC

1 67827C 26033G   26257.97548611  .00027994  00000+0  10140-2 0  2572
2 67827  42.9998 278.4254 0001452 263.6234 281.3670 15.27561057    10

Track STARLINK-36289 in real time with AllMySat

Download on the App Store